Location: Del Amo
(33.8464°N, 118.2104°W)
Time: 03:59:10
(UTC+00:00)

S-56A Canister/Altair - Pass Details

Date: 22 September 2024
Orbit: 636 x 2487 km, 38.9° (Epoch: 05 October)

Event Time Altitude Azimuth Distance (km) Brightness Sun altitude
Rises 23:54:02 0° 244° (WSW) 2,934 11.9 23.0°
Reaches altitude 10° 23:56:16 10° 243° (WSW) 2,010 11.5 22.5°
Maximum altitude 00:00:42 80° 157° (SSE) 681 7.6 21.6°
Drops below altitude 10° 00:05:53 10° 70° (ENE) 2,348 9.5 20.6°
Sets 00:08:42 0° 69° (ENE) 3,481 10.3 20.0°
